• în România
  • Lista ţărilor
  • Pe 7 zile
  • Temperatura apei
  • Hartă satelitară
  • Meteo pe hartă
  • Widget-uri
  • user-avatar
    Intrare

    Meteo pe oră la Darwin

    Astăzi, 30 Aprilie, Duminică

    Timp Temperatura Precipitaţii Vânt Presiune Umiditate
    00:00 +25°C° 0 mm 3 m/s 759 mmHg 62%
    01:00 +24°C° 0 mm 3 m/s 759 mmHg 60%
    02:00 +24°C° 0 mm 3 m/s 759 mmHg 58%
    03:00 +24°C° 0 mm 3 m/s 759 mmHg 64%
    04:00 +24°C° 0 mm 3 m/s 759 mmHg 62%
    05:00 +24°C° 0 mm 3 m/s 759 mmHg 60%
    06:00 +22°C° 0 mm 4 m/s 759 mmHg 58%
    07:00 +25°C° 0 mm 4 m/s 759 mmHg 57%
    08:00 +26°C° 0 mm 4 m/s 759 mmHg 55%
    09:00 +27°C° 0 mm 4 m/s 760 mmHg 54%
    10:00 +29°C° 0 mm 4 m/s 759 mmHg 49%
    11:00 +32°C° 0 mm 4 m/s 759 mmHg 44%
    12:00 +33°C° 0 mm 3 m/s 759 mmHg 39%
    13:00 +34°C° 0 mm 3 m/s 758 mmHg 39%
    14:00 +34°C° 0 mm 2 m/s 758 mmHg 39%
    15:00 +35°C° 0 mm 2 m/s 758 mmHg 39%
    16:00 +32°C° 0 mm 2 m/s 758 mmHg 45%
    17:00 +30°C° 0 mm 2 m/s 758 mmHg 52%
    18:00 +28°C° 0 mm 2 m/s 758 mmHg 59%
    19:00 +27°C° 0 mm 2 m/s 758 mmHg 61%
    20:00 +27°C° 0 mm 2 m/s 759 mmHg 63%
    21:00 +26°C° 0 mm 2 m/s 759 mmHg 65%
    22:00 +26°C° 0 mm 1 m/s 759 mmHg 65%
    23:00 +25°C° 0 mm 1 m/s 759 mmHg 65%

    Mâine, 1 Mai, Luni

    Timp Temperatura Precipitaţii Vânt Presiune Umiditate
    00:00 +25°C° 0 mm 1 m/s 759 mmHg 65%
    01:00 +25°C° 0 mm 1 m/s 759 mmHg 62%
    02:00 +25°C° 0 mm 2 m/s 759 mmHg 58%
    03:00 +25°C° 0 mm 2 m/s 759 mmHg 54%
    04:00 +25°C° 0 mm 2 m/s 759 mmHg 55%
    05:00 +24°C° 0 mm 2 m/s 759 mmHg 56%
    06:00 +24°C° 0 mm 3 m/s 759 mmHg 57%
    07:00 +25°C° 0 mm 3 m/s 759 mmHg 58%
    08:00 +27°C° 0 mm 3 m/s 759 mmHg 60%
    09:00 +28°C° 0 mm 3 m/s 760 mmHg 61%
    10:00 +30°C° 0 mm 3 m/s 760 mmHg 57%
    11:00 +31°C° 0 mm 3 m/s 759 mmHg 52%
    12:00 +34°C° 0 mm 2 m/s 759 mmHg 48%
    13:00 +34°C° 0 mm 2 m/s 759 mmHg 47%
    14:00 +34°C° 0 mm 2 m/s 758 mmHg 46%
    15:00 +34°C° 0 mm 2 m/s 758 mmHg 45%
    16:00 +32°C° 0 mm 2 m/s 758 mmHg 51%
    17:00 +30°C° 0 mm 2 m/s 758 mmHg 58%
    18:00 +29°C° 0 mm 2 m/s 758 mmHg 65%
    19:00 +28°C° 0 mm 2 m/s 759 mmHg 67%
    20:00 +27°C° 0 mm 2 m/s 759 mmHg 69%
    21:00 +26°C° 0 mm 2 m/s 759 mmHg 71%
    22:00 +26°C° 0 mm 1 m/s 759 mmHg 72%
    23:00 +26°C° 0 mm 1 m/s 759 mmHg 73%

    Poimâine, 2 Mai, Marţi

    Timp Temperatura Precipitaţii Vânt Presiune Umiditate
    00:00 +25°C° 0 mm 1 m/s 759 mmHg 73%
    01:00 +25°C° 0 mm 1 m/s 759 mmHg 74%
    02:00 +25°C° 0 mm 1 m/s 759 mmHg 75%
    03:00 +25°C° 0 mm 1 m/s 758 mmHg 76%
    04:00 +25°C° 0 mm 2 m/s 758 mmHg 74%
    05:00 +24°C° 0 mm 2 m/s 759 mmHg 72%
    06:00 +24°C° 0 mm 2 m/s 759 mmHg 71%
    07:00 +26°C° 0 mm 2 m/s 759 mmHg 65%
    08:00 +27°C° 0 mm 2 m/s 759 mmHg 60%
    09:00 +29°C° 0 mm 2 m/s 760 mmHg 55%
    10:00 +31°C° 0 mm 2 m/s 760 mmHg 51%
    11:00 +32°C° 0 mm 2 m/s 759 mmHg 47%
    12:00 +35°C° 0 mm 2 m/s 759 mmHg 43%
    13:00 +35°C° 0 mm 2 m/s 758 mmHg 42%
    14:00 +35°C° 0 mm 2 m/s 758 mmHg 41%
    15:00 +35°C° 0 mm 2 m/s 757 mmHg 40%
    16:00 +32°C° 0 mm 2 m/s 757 mmHg 48%
    17:00 +31°C° 0 mm 2 m/s 757 mmHg 55%
    18:00 +29°C° 0 mm 2 m/s 757 mmHg 62%
    19:00 +28°C° 0 mm 2 m/s 758 mmHg 65%
    20:00 +27°C° 0 mm 2 m/s 759 mmHg 68%
    21:00 +27°C° 0 mm 1 m/s 759 mmHg 71%
    22:00 +26°C° 0 mm 1 m/s 759 mmHg 74%
    23:00 +26°C° 0 mm 1 m/s 759 mmHg 76%

    3 Mai, Miercuri

    Timp Temperatura Precipitaţii Vânt Presiune Umiditate
    00:00 +26°C° 0 mm 1 m/s 759 mmHg 79%
    01:00 +25°C° 0 mm 1 m/s 759 mmHg 79%
    02:00 +25°C° 0 mm 1 m/s 759 mmHg 80%
    03:00 +25°C° 0 mm 1 m/s 758 mmHg 81%
    04:00 +25°C° 0 mm 1 m/s 758 mmHg 79%
    05:00 +25°C° 0 mm 1 m/s 759 mmHg 78%
    06:00 +25°C° 0 mm 2 m/s 759 mmHg 77%
    07:00 +27°C° 0,2 mm 2 m/s 759 mmHg 73%
    08:00 +28°C° 0,2 mm 2 m/s 760 mmHg 68%
    09:00 +30°C° 0,2 mm 1 m/s 760 mmHg 64%
    10:00 +31°C° 0 mm 2 m/s 760 mmHg 59%
    11:00 +33°C° 0 mm 3 m/s 760 mmHg 54%
    12:00 +35°C° 0 mm 3 m/s 759 mmHg 48%
    13:00 +35°C° 0 mm 3 m/s 759 mmHg 47%
    14:00 +35°C° 0 mm 3 m/s 758 mmHg 46%
    15:00 +35°C° 0 mm 2 m/s 757 mmHg 45%
    16:00 +34°C° 0 mm 2 m/s 758 mmHg 52%
    17:00 +31°C° 0 mm 2 m/s 758 mmHg 59%
    18:00 +29°C° 0 mm 2 m/s 758 mmHg 66%
    19:00 +29°C° 0,1 mm 2 m/s 759 mmHg 67%
    20:00 +28°C° 0,1 mm 2 m/s 759 mmHg 69%
    21:00 +27°C° 0,1 mm 2 m/s 760 mmHg 70%
    22:00 +27°C° 0,3 mm 2 m/s 760 mmHg 72%
    23:00 +27°C° 0,3 mm 2 m/s 760 mmHg 73%

    4 Mai, Joi

    Timp Temperatura Precipitaţii Vânt Presiune Umiditate
    00:00 +27°C° 0,3 mm 2 m/s 760 mmHg 74%
    01:00 +26°C° 0,4 mm 2 m/s 759 mmHg 76%
    02:00 +26°C° 0,4 mm 3 m/s 759 mmHg 78%
    03:00 +25°C° 0,4 mm 3 m/s 759 mmHg 79%
    04:00 +25°C° 0,1 mm 3 m/s 759 mmHg 79%
    05:00 +25°C° 0,1 mm 4 m/s 759 mmHg 79%
    06:00 +23°C° 0,1 mm 4 m/s 760 mmHg 79%
    07:00 +26°C° 0 mm 4 m/s 760 mmHg 73%
    08:00 +27°C° 0 mm 4 m/s 760 mmHg 67%
    09:00 +28°C° 0 mm 4 m/s 761 mmHg 61%
    10:00 +30°C° 0 mm 5 m/s 760 mmHg 56%
    11:00 +33°C° 0 mm 5 m/s 760 mmHg 51%
    12:00 +34°C° 0 mm 5 m/s 759 mmHg 46%
    13:00 +35°C° 0 mm 4 m/s 759 mmHg 45%
    14:00 +35°C° 0 mm 4 m/s 758 mmHg 45%
    15:00 +35°C° 0 mm 4 m/s 757 mmHg 45%
    16:00 +34°C° 0,1 mm 3 m/s 758 mmHg 52%
    17:00 +31°C° 0,1 mm 2 m/s 758 mmHg 60%
    18:00 +29°C° 0,1 mm 2 m/s 758 mmHg 68%
    19:00 +29°C° 0,1 mm 2 m/s 759 mmHg 69%
    20:00 +28°C° 0,1 mm 2 m/s 760 mmHg 70%
    21:00 +27°C° 0,1 mm 1 m/s 760 mmHg 71%
    22:00 +27°C° 0,1 mm 2 m/s 760 mmHg 73%
    23:00 +27°C° 0,1 mm 2 m/s 760 mmHg 74%

    5 Mai, Vineri

    Timp Temperatura Precipitaţii Vânt Presiune Umiditate
    00:00 +26°C° 0,1 mm 3 m/s 760 mmHg 75%
    01:00 +26°C° 0,4 mm 3 m/s 759 mmHg 76%
    02:00 +26°C° 0,4 mm 3 m/s 759 mmHg 78%
    03:00 +25°C° 0,4 mm 3 m/s 759 mmHg 79%
    04:00 +25°C° 0 mm 4 m/s 759 mmHg 79%
    05:00 +25°C° 0 mm 4 m/s 760 mmHg 79%
    06:00 +23°C° 0 mm 4 m/s 760 mmHg 80%
    07:00 +26°C° 0 mm 5 m/s 760 mmHg 74%
    08:00 +28°C° 0 mm 5 m/s 760 mmHg 69%
    09:00 +29°C° 0 mm 6 m/s 761 mmHg 63%
    10:00 +32°C° 0 mm 6 m/s 760 mmHg 57%
    11:00 +33°C° 0 mm 6 m/s 759 mmHg 52%
    12:00 +35°C° 0 mm 5 m/s 759 mmHg 46%
    13:00 +35°C° 0 mm 5 m/s 758 mmHg 46%
    14:00 +35°C° 0 mm 5 m/s 758 mmHg 45%
    15:00 +36°C° 0 mm 4 m/s 757 mmHg 45%
    16:00 +34°C° 0,4 mm 4 m/s 758 mmHg 54%
    17:00 +31°C° 0,4 mm 3 m/s 758 mmHg 64%
    18:00 +29°C° 0,4 mm 3 m/s 759 mmHg 74%
    19:00 +28°C° 0,5 mm 3 m/s 759 mmHg 75%
    20:00 +28°C° 0,5 mm 3 m/s 760 mmHg 76%
    21:00 +27°C° 0,5 mm 3 m/s 760 mmHg 78%
    22:00 +27°C° 0,2 mm 3 m/s 760 mmHg 78%
    23:00 +27°C° 0,2 mm 3 m/s 760 mmHg 79%
    Arată mai mult